START_TIME,STEP,MOV.,M6,t_acc.,M7,t_acc.,M19,t_acc.,H36,t_acc.
1979-07-23 09:00:26.660 ,0,0,0.,12.0,0.,12.0,0.,12.0,0.,12.0
1979-07-23 09:00:38.660 ,0,0,0.,12.0,0.,12.0,0.,12.0,0.,12.0
1979-07-23 09:00:50.660 ,0,1,0.,12.0,0.,12.0,0.,12.0,0.,12.0
1979-07-23 09:01:02.660 ,0,1,0.,12.0,0.,12.0,0.,12.0,0.,12.0
1979-07-23 09:01:14.660 ,0,0,0.,12.0,0.,12.0,0.,12.0,0.,12.0
1979-07-23 09:01:26.660 ,0,0,0.,12.0,0.,12.0,0.,12.0,0.,12.0
1979-07-23 09:01:38.660 ,1,1,0.,12.0,0.,12.0,0.,12.0,0.,12.0
1979-07-23 09:01:50.660 ,1,1,0.,12.0,0.,12.0,0.,12.0,0.,12.0
1979-07-23 09:02:02.660 ,1,0,0.,12.0,0.,12.0,0.,12.0,0.,12.0
1979-07-23 09:02:14.660 ,1,0,0.,12.0,0.,12.0,0.,12.0,0.,12.0
1979-07-23 09:02:26.660 ,2,1,0.,12.0,0.,12.0,0.,12.0,0.,12.0
1979-07-23 09:02:38.660 ,2,1,0.,12.0,0.,12.0,0.,12.0,0.,12.0
1979-07-23 09:02:50.660 ,2,0,0.,12.0,0.,12.0,0.,12.0,0.,12.0
1979-07-23 09:03:02.660 ,2,0,0.,12.0,0.,12.0,0.,12.0,0.,12.0
1979-07-23 09:03:14.660 ,3,1,0.,12.0,0.,12.0,0.,12.0,0.,12.0
1979-07-23 09:03:26.660 ,3,1,0.,12.0,0.,12.0,0.,12.0,0.,12.0
1979-07-23 09:03:38.660 ,3,0,0.,12.0,0.,12.0,0.,12.0,0.,12.0
1979-07-23 09:03:50.660 ,3,0,0.,12.0,0.,12.0,0.,12.0,0.,12.0
1979-07-23 09:04:02.660 ,4,1,0.,12.0,0.,12.0,0.,12.0,0.,12.0
1979-07-23 09:04:14.660 ,4,1,0.,12.0,0.,12.0,0.,12.0,0.,12.0
1979-07-23 09:04:26.660 ,4,0,0.,12.0,0.,12.0,0.,12.0,0.,12.0
1979-07-23 09:04:38.660 ,4,0,0.,12.0,0.,12.0,0.,12.0,0.,12.0
1979-07-23 09:04:50.660 ,5,1,0.,12.0,0.,12.0,0.,12.0,0.,12.0
1979-07-23 09:05:02.660 ,5,1,0.,12.0,0.,12.0,0.,12.0,0.,12.0
1979-07-23 09:05:14.660 ,5,0,0.,12.0,0.,12.0,0.,12.0,0.,12.0
1979-07-23 09:05:26.660 ,5,0,0.,12.0,0.,12.0,0.,12.0,0.,12.0
1979-07-23 09:05:38.660 ,6,1,0.,12.0,0.,12.0,0.,12.0,0.,12.0
1979-07-23 09:05:50.660 ,6,1,0.,12.0,0.,12.0,0.,12.0,0.,12.0
1979-07-23 09:06:02.660 ,6,0,0.,12.0,0.,12.0,0.,12.0,0.,12.0
1979-07-23 09:06:14.660 ,6,0,0.,12.0,0.,12.0,0.,12.0,0.,12.0
1979-07-23 09:06:26.660 ,7,0,0.,12.0,0.,12.0,0.,12.0,0.,12.0
1979-07-23 09:06:38.660 ,7,0,0.,12.0,0.,12.0,0.,12.0,0.,12.0
1979-07-23 09:06:50.660 ,7,0,0.,12.0,0.,12.0,0.,12.0,0.,12.0
1979-07-23 09:07:02.660 ,7,0,0.,12.0,0.,12.0,0.,12.0,0.,12.0
1979-07-23 09:07:14.660 ,4,1,0.,12.0,0.,12.0,0.,12.0,0.,12.0
1979-07-23 09:07:26.660 ,4,1,0.,12.0,0.,12.0,0.,12.0,0.,12.0
1979-07-23 09:07:38.660 ,0,1,0.,12.0,0.,12.0,0.,12.0,0.,12.0
1979-07-23 09:07:50.660 ,0,1,0.,12.0,0.,12.0,0.,12.0,0.,12.0
1979-07-23 09:08:02.660 ,3,1,0.,12.0,0.,12.0,0.,12.0,0.,12.0
1979-07-23 09:08:14.660 ,3,1,0.,12.0,0.,12.0,0.,12.0,0.,12.0
1979-07-23 09:08:26.660 ,7,1,0.,12.0,0.,12.0,0.,12.0,0.,12.0
1979-07-23 09:08:38.660 ,7,1,0.,12.0,0.,12.0,0.,12.0,0.,12.0
1979-07-23 09:08:50.660 ,4,1,0.,12.0,0.,12.0,0.,12.0,0.,12.0
1979-07-23 09:09:02.660 ,4,1,0.,12.0,0.,12.0,0.,12.0,0.,12.0
1979-07-23 09:09:14.660 ,0,1,0.,12.0,0.,12.0,0.,12.0,0.,12.0
1979-07-23 09:09:26.660 ,0,1,0.,12.0,0.,12.0,0.,12.0,0.,12.0
1979-07-23 09:09:38.660 ,3,1,0.,12.0,0.,12.0,0.,12.0,0.,12.0
1979-07-23 09:09:50.660 ,3,1,0.,12.0,0.,12.0,0.,12.0,0.,12.0
1979-07-23 09:10:02.660 ,7,1,0.,12.0,0.,12.0,0.,12.0,0.,12.0
1979-07-23 09:10:14.660 ,7,1,0.,12.0,0.,12.0,0.,12.0,0.,12.0
1979-07-23 09:10:26.660 ,4,1,0.,12.0,0.,12.0,0.,12.0,0.,12.0
1979-07-23 09:10:38.660 ,4,1,0.,12.0,0.,12.0,0.,12.0,0.,12.0
1979-07-23 09:10:50.660 ,0,1,0.,12.0,0.,12.0,0.,12.0,0.,12.0
1979-07-23 09:11:02.660 ,0,1,0.,12.0,0.,12.0,0.,12.0,0.,12.0
1979-07-23 09:11:14.660 ,3,1,0.,12.0,0.,12.0,0.,12.0,0.,12.0
1979-07-23 09:11:26.660 ,3,1,0.,12.0,0.,12.0,0.,12.0,0.,12.0
1979-07-23 09:11:38.660 ,7,1,0.,12.0,0.,12.0,0.,12.0,0.,12.0
1979-07-23 09:11:50.660 ,7,1,0.,12.0,0.,12.0,0.,12.0,0.,12.0
1979-07-23 09:12:02.660 ,4,1,0.,12.0,0.,12.0,0.,12.0,0.,12.0
1979-07-23 09:12:14.660 ,4,1,0.,12.0,0.,12.0,0.,12.0,0.,12.0
1979-07-23 09:12:26.660 ,0,1,0.,12.0,0.,12.0,0.,12.0,0.,12.0
1979-07-23 09:12:38.660 ,0,1,0.,12.0,0.,12.0,0.,12.0,0.,12.0
1979-07-23 09:12:50.660 ,3,1,0.,12.0,0.,12.0,0.,12.0,0.,12.0
1979-07-23 09:13:02.660 ,3,1,0.,12.0,0.,12.0,0.,12.0,0.,12.0
1979-07-23 09:13:14.660 ,7,1,0.,12.0,0.,12.0,0.,12.0,0.,12.0
1979-07-23 09:13:26.660 ,7,1,0.,12.0,0.,12.0,0.,12.0,0.,12.0
1979-07-23 09:13:38.660 ,4,1,0.,12.0,0.,12.0,0.,12.0,0.,12.0
1979-07-23 09:13:50.660 ,4,1,0.,12.0,0.,12.0,0.,12.0,0.,12.0
1979-07-23 09:14:02.660 ,0,1,0.,12.0,0.,12.0,0.,12.0,0.,12.0
1979-07-23 09:14:14.660 ,0,1,0.,12.0,0.,12.0,0.,12.0,0.,12.0
1979-07-23 09:14:26.660 ,3,1,0.,12.0,0.,12.0,0.,12.0,0.,12.0
1979-07-23 09:14:38.660 ,3,1,0.,12.0,0.,12.0,0.,12.0,0.,12.0
1979-07-23 09:14:50.660 ,7,1,0.,12.0,0.,12.0,0.,12.0,0.,12.0
1979-07-23 09:15:02.660 ,7,1,0.,12.0,0.,12.0,0.,12.0,0.,12.0
1979-07-23 09:15:14.660 ,4,1,0.,12.0,0.,12.0,0.,12.0,0.,12.0
1979-07-23 09:15:26.660 ,4,1,0.,12.0,0.,12.0,0.,12.0,0.,12.0
1979-07-23 09:15:38.660 ,0,0,0.,12.0,0.,12.0,0.,12.0,0.,12.0
1979-07-23 09:15:50.660 ,0,0,0.,12.0,0.,12.0,0.,12.0,0.,12.0
1979-07-23 09:16:02.660 ,0,0,0.,12.0,0.,12.0,0.,12.0,0.,12.0
1979-07-23 09:16:14.660 ,0,0,0.,12.0,0.,12.0,0.,12.0,0.,12.0
1979-07-23 09:16:26.660 ,7,1,0.,12.0,0.,12.0,0.,12.0,0.,12.0
1979-07-23 09:16:38.660 ,7,1,0.,12.0,0.,12.0,0.,12.0,0.,12.0
1979-07-23 09:16:50.660 ,4,1,0.,12.0,0.,12.0,0.,12.0,0.,12.0
1979-07-23 09:17:02.660 ,4,1,0.,12.0,0.,12.0,0.,12.0,0.,12.0
1979-07-23 09:17:14.660 ,0,1,0.,12.0,0.,12.0,0.,12.0,0.,12.0
1979-07-23 09:17:26.660 ,0,1,0.,12.0,0.,12.0,0.,12.0,0.,12.0
1979-07-23 09:17:38.660 ,0,0,0.,12.0,0.,12.0,0.,12.0,0.,12.0
1979-07-23 09:17:50.660 ,0,0,0.,12.0,0.,12.0,0.,12.0,0.,12.0
1979-07-23 09:18:02.660 ,0,0,0.,12.0,0.,12.0,0.,12.0,0.,12.0
1979-07-23 09:18:14.660 ,0,0,0.,12.0,0.,12.0,0.,12.0,0.,12.0
1979-07-23 09:18:26.660 ,5,1,0.,12.0,0.,12.0,0.,12.0,0.,12.0
1979-07-23 09:18:38.660 ,5,1,1.,12.0,0.,12.0,0.,12.0,0.,12.0
1979-07-23 09:18:50.660 ,5,0,0.,12.0,0.,12.0,0.,12.0,0.,12.0
1979-07-23 09:19:02.660 ,5,0,0.,12.0,0.,12.0,0.,12.0,0.,12.0
1979-07-23 09:19:14.660 ,4,1,0.,12.0,0.,12.0,0.,12.0,0.,12.0
1979-07-23 09:19:26.660 ,4,1,0.,12.0,0.,12.0,0.,12.0,0.,12.0
1979-07-23 09:19:38.660 ,4,0,0.,12.0,0.,12.0,0.,12.0,0.,12.0
1979-07-23 09:19:50.660 ,4,0,0.,12.0,0.,12.0,0.,12.0,0.,12.0
1979-07-23 09:20:02.660 ,3,1,0.,12.0,0.,12.0,0.,12.0,0.,12.0
1979-07-23 09:20:14.660 ,3,1,0.,12.0,0.,12.0,0.,12.0,0.,12.0
1979-07-23 09:20:26.660 ,3,0,0.,12.0,0.,12.0,0.,12.0,0.,12.0
1979-07-23 09:20:38.660 ,3,0,0.,12.0,0.,12.0,0.,12.0,0.,12.0
1979-07-23 09:20:50.660 ,2,1,0.,12.0,0.,12.0,0.,12.0,0.,12.0
1979-07-23 09:21:02.660 ,2,1,0.,12.0,0.,12.0,0.,12.0,0.,12.0
1979-07-23 09:21:14.660 ,2,0,0.,12.0,0.,12.0,0.,12.0,0.,12.0
1979-07-23 09:21:26.660 ,2,0,0.,12.0,0.,12.0,0.,12.0,0.,12.0
1979-07-23 09:21:38.660 ,1,1,0.,12.0,0.,12.0,0.,12.0,0.,12.0
1979-07-23 09:21:50.660 ,1,1,0.,12.0,0.,12.0,0.,12.0,0.,12.0
1979-07-23 09:22:02.660 ,1,0,0.,12.0,0.,12.0,0.,12.0,0.,12.0
1979-07-23 09:22:14.660 ,1,0,0.,12.0,0.,12.0,0.,12.0,0.,12.0
1979-07-23 09:22:26.660 ,0,1,0.,12.0,0.,12.0,0.,12.0,0.,12.0
1979-07-23 09:22:38.660 ,0,1,0.,12.0,0.,12.0,0.,12.0,0.,12.0
1979-07-23 09:22:50.660 ,0,0,0.,12.0,0.,12.0,0.,12.0,0.,12.0
1979-07-23 09:23:02.660 ,0,0,0.,12.0,0.,12.0,0.,12.0,0.,12.0
1979-07-23 09:23:14.660 ,0,1,0.,12.0,0.,12.0,0.,12.0,0.,12.0
1979-07-23 09:23:26.660 ,0,1,0.,12.0,0.,12.0,0.,12.0,0.,12.0
1979-07-23 09:23:38.660 ,0,0,0.,12.0,0.,12.0,0.,12.0,0.,12.0
1979-07-23 09:23:50.660 ,0,0,0.,12.0,0.,12.0,0.,12.0,0.,12.0
1979-07-23 09:24:02.660 ,1,1,0.,12.0,0.,12.0,0.,12.0,0.,12.0
1979-07-23 09:24:14.660 ,1,1,0.,12.0,0.,12.0,0.,12.0,0.,12.0
1979-07-23 09:24:26.660 ,1,0,0.,12.0,0.,12.0,0.,12.0,0.,12.0
1979-07-23 09:24:38.660 ,1,0,0.,12.0,0.,12.0,0.,12.0,0.,12.0
1979-07-23 09:24:50.660 ,2,1,0.,12.0,0.,12.0,0.,12.0,0.,12.0
1979-07-23 09:25:02.660 ,2,1,0.,12.0,0.,12.0,0.,12.0,0.,12.0
1979-07-23 09:25:14.660 ,2,0,0.,12.0,0.,12.0,0.,12.0,0.,12.0
1979-07-23 09:25:26.660 ,2,0,0.,12.0,0.,12.0,0.,12.0,0.,12.0
1979-07-23 09:25:38.660 ,3,1,0.,12.0,0.,12.0,0.,12.0,0.,12.0
1979-07-23 09:25:50.660 ,3,1,0.,12.0,0.,12.0,0.,12.0,0.,12.0
1979-07-23 09:26:02.660 ,3,0,0.,12.0,0.,12.0,0.,12.0,0.,12.0
1979-07-23 09:26:14.660 ,3,0,0.,12.0,0.,12.0,0.,12.0,0.,12.0
1979-07-23 09:26:26.660 ,4,1,0.,12.0,0.,12.0,0.,12.0,0.,12.0
1979-07-23 09:26:38.660 ,4,1,0.,12.0,0.,12.0,0.,12.0,0.,12.0
1979-07-23 09:26:50.660 ,4,0,0.,12.0,0.,12.0,0.,12.0,0.,12.0
1979-07-23 09:27:02.660 ,4,0,0.,12.0,0.,12.0,0.,12.0,0.,12.0
1979-07-23 09:27:14.660 ,5,1,0.,12.0,0.,12.0,0.,12.0,0.,12.0
1979-07-23 09:27:26.660 ,5,1,0.,12.0,0.,12.0,0.,12.0,0.,12.0
1979-07-23 09:27:38.660 ,5,0,0.,12.0,0.,12.0,0.,12.0,0.,12.0
1979-07-23 09:27:50.660 ,5,0,0.,12.0,0.,12.0,0.,12.0,0.,12.0
1979-07-23 09:28:02.660 ,6,1,0.,12.0,0.,12.0,0.,12.0,0.,12.0
1979-07-23 09:28:14.660 ,6,1,0.,12.0,0.,12.0,0.,12.0,0.,12.0
1979-07-23 09:28:26.660 ,6,0,0.,12.0,0.,12.0,0.,12.0,0.,12.0
1979-07-23 09:28:38.660 ,6,0,0.,12.0,0.,12.0,0.,12.0,0.,12.0
1979-07-23 09:28:50.660 ,7,1,0.,12.0,0.,12.0,0.,12.0,0.,12.0
1979-07-23 09:29:02.660 ,7,1,0.,12.0,0.,12.0,0.,12.0,0.,12.0
1979-07-23 09:29:14.660 ,7,0,0.,12.0,0.,12.0,0.,12.0,0.,12.0
1979-07-23 09:29:26.660 ,7,0,0.,12.0,0.,12.0,0.,12.0,0.,12.0
1979-07-23 09:29:38.660 ,7,1,0.,12.0,0.,12.0,0.,12.0,0.,12.0
1979-07-23 09:29:50.660 ,7,1,0.,12.0,0.,12.0,0.,12.0,0.,12.0
1979-07-23 09:30:02.660 ,7,0,0.,12.0,0.,12.0,0.,12.0,0.,12.0
1979-07-23 09:30:14.660 ,7,0,0.,12.0,0.,12.0,0.,12.0,0.,12.0
1979-07-23 09:30:26.660 ,6,1,0.,12.0,0.,12.0,0.,12.0,0.,12.0
1979-07-23 09:30:38.660 ,6,1,0.,12.0,0.,12.0,0.,12.0,0.,12.0
1979-07-23 09:30:50.660 ,6,0,0.,12.0,0.,12.0,0.,12.0,0.,12.0
1979-07-23 09:31:02.660 ,6,0,0.,12.0,0.,12.0,0.,12.0,0.,12.0
1979-07-23 09:32:02.660 ,0,0,0.,12.0,0.,12.0,0.,12.0,0.,12.0
1979-07-23 09:32:14.660 ,0,0,0.,12.0,0.,12.0,0.,12.0,0.,12.0
1979-07-23 09:32:26.660 ,0,0,0.,12.0,0.,12.0,0.,12.0,0.,12.0
1979-07-23 09:32:38.660 ,0,0,0.,12.0,0.,12.0,0.,12.0,0.,12.0
1979-07-23 09:32:50.660 ,3,1,0.,12.0,0.,12.0,0.,12.0,0.,12.0
1979-07-23 09:33:02.660 ,3,1,0.,12.0,0.,12.0,0.,12.0,0.,12.0
1979-07-23 09:33:14.660 ,3,0,0.,12.0,0.,12.0,0.,12.0,0.,12.0
1979-07-23 09:33:26.660 ,3,0,0.,12.0,0.,12.0,0.,12.0,0.,12.0
1979-07-23 09:33:38.660 ,2,1,0.,12.0,0.,12.0,0.,12.0,0.,12.0
1979-07-23 09:33:50.660 ,2,1,0.,12.0,0.,12.0,0.,12.0,0.,12.0
1979-07-23 09:34:02.660 ,2,0,0.,12.0,0.,12.0,0.,12.0,0.,12.0
1979-07-23 09:34:14.660 ,2,0,0.,12.0,0.,12.0,0.,12.0,0.,12.0
1979-07-23 09:34:26.660 ,1,1,0.,12.0,0.,12.0,0.,12.0,0.,12.0
1979-07-23 09:34:38.660 ,1,1,0.,12.0,0.,12.0,0.,12.0,0.,12.0
1979-07-23 09:34:50.660 ,1,0,0.,12.0,0.,12.0,0.,12.0,0.,12.0
1979-07-23 09:35:02.660 ,1,0,0.,12.0,0.,12.0,0.,12.0,0.,12.0
1979-07-23 09:35:14.660 ,0,1,0.,12.0,0.,12.0,0.,12.0,0.,12.0
1979-07-23 09:35:26.660 ,0,1,0.,12.0,0.,12.0,0.,12.0,0.,12.0
1979-07-23 09:35:38.660 ,0,0,0.,12.0,0.,12.0,0.,12.0,0.,12.0
1979-07-23 09:35:50.660 ,0,0,0.,12.0,0.,12.0,0.,12.0,0.,12.0
1979-07-23 09:36:02.660 ,0,1,0.,12.0,0.,12.0,0.,12.0,0.,12.0
1979-07-23 09:36:14.660 ,0,1,0.,12.0,0.,12.0,0.,12.0,0.,12.0
1979-07-23 09:36:26.660 ,0,0,0.,12.0,0.,12.0,0.,12.0,0.,12.0
1979-07-23 09:36:38.660 ,0,0,0.,12.0,0.,12.0,0.,12.0,0.,12.0
1979-07-23 09:36:50.660 ,1,1,0.,12.0,0.,12.0,0.,12.0,0.,12.0
1979-07-23 09:37:02.660 ,1,1,0.,12.0,0.,12.0,0.,12.0,0.,12.0
1979-07-23 09:37:14.660 ,1,0,0.,12.0,0.,12.0,0.,12.0,0.,12.0
1979-07-23 09:37:26.660 ,1,0,0.,12.0,0.,12.0,0.,12.0,0.,12.0
1979-07-23 09:37:38.660 ,2,1,0.,12.0,0.,12.0,0.,12.0,0.,12.0
1979-07-23 09:37:50.660 ,2,1,0.,12.0,0.,12.0,0.,12.0,0.,12.0
1979-07-23 09:38:02.660 ,2,0,0.,12.0,0.,12.0,0.,12.0,0.,12.0
1979-07-23 09:38:14.660 ,2,0,0.,12.0,0.,12.0,0.,12.0,0.,12.0
1979-07-23 09:38:26.660 ,3,1,0.,12.0,0.,12.0,0.,12.0,0.,12.0
1979-07-23 09:38:38.660 ,3,1,0.,12.0,0.,12.0,0.,12.0,0.,12.0
1979-07-23 09:38:50.660 ,3,0,0.,12.0,0.,12.0,0.,12.0,0.,12.0
1979-07-23 09:39:02.660 ,3,0,0.,12.0,0.,12.0,0.,12.0,0.,12.0
1979-07-23 09:39:14.660 ,4,1,0.,12.0,0.,12.0,0.,12.0,0.,12.0
1979-07-23 09:39:26.660 ,4,1,0.,12.0,0.,12.0,0.,12.0,0.,12.0
1979-07-23 09:39:38.660 ,4,0,0.,12.0,0.,12.0,0.,12.0,0.,12.0
1979-07-23 09:39:50.660 ,4,0,0.,12.0,0.,12.0,0.,12.0,0.,12.0
1979-07-23 09:40:02.660 ,5,1,0.,12.0,0.,12.0,0.,12.0,0.,12.0
1979-07-23 09:40:14.660 ,5,1,0.,12.0,0.,12.0,0.,12.0,0.,12.0
1979-07-23 09:40:26.660 ,5,0,0.,12.0,0.,12.0,0.,12.0,0.,12.0
1979-07-23 09:40:38.660 ,5,0,0.,12.0,0.,12.0,0.,12.0,0.,12.0
1979-07-23 09:40:50.660 ,6,1,0.,12.0,0.,12.0,0.,12.0,0.,12.0
1979-07-23 09:41:02.660 ,6,1,0.,12.0,0.,12.0,0.,12.0,0.,12.0
1979-07-23 09:41:14.660 ,6,0,0.,12.0,0.,12.0,0.,12.0,0.,12.0
1979-07-23 09:41:26.660 ,6,0,0.,12.0,0.,12.0,0.,12.0,0.,12.0
1979-07-23 09:41:38.660 ,7,1,0.,12.0,0.,12.0,0.,12.0,0.,12.0
1979-07-23 09:41:50.660 ,7,1,0.,12.0,0.,12.0,0.,12.0,0.,12.0
1979-07-23 09:42:02.660 ,7,0,0.,12.0,0.,12.0,0.,12.0,0.,12.0
1979-07-23 09:42:14.660 ,7,0,0.,12.0,0.,12.0,0.,12.0,0.,12.0
1979-07-23 09:42:26.660 ,7,1,0.,12.0,0.,12.0,0.,12.0,0.,12.0
1979-07-23 09:42:38.660 ,7,1,0.,12.0,0.,12.0,0.,12.0,0.,12.0
1979-07-23 09:42:50.660 ,7,0,0.,12.0,0.,12.0,0.,12.0,0.,12.0
1979-07-23 09:43:02.660 ,7,0,0.,12.0,0.,12.0,0.,12.0,0.,12.0
1979-07-23 09:43:14.660 ,6,1,0.,12.0,0.,12.0,0.,12.0,0.,12.0
1979-07-23 09:43:26.660 ,6,1,0.,12.0,0.,12.0,0.,12.0,0.,12.0
1979-07-23 09:43:38.660 ,6,0,0.,12.0,0.,12.0,0.,12.0,0.,12.0
1979-07-23 09:43:50.660 ,6,0,0.,12.0,0.,12.0,0.,12.0,0.,12.0
1979-07-23 09:44:02.660 ,5,1,0.,12.0,0.,12.0,0.,12.0,0.,12.0
1979-07-23 09:44:14.660 ,5,1,0.,12.0,0.,12.0,0.,12.0,0.,12.0
1979-07-23 09:44:26.660 ,5,0,0.,12.0,0.,12.0,0.,12.0,0.,12.0
1979-07-23 09:44:38.660 ,5,0,0.,12.0,0.,12.0,0.,12.0,0.,12.0
1979-07-23 09:44:50.660 ,4,1,0.,12.0,0.,12.0,0.,12.0,0.,12.0
1979-07-23 09:45:02.660 ,4,1,0.,12.0,0.,12.0,0.,12.0,0.,12.0
1979-07-23 09:45:14.660 ,4,0,0.,12.0,0.,12.0,0.,12.0,0.,12.0
1979-07-23 09:45:26.660 ,4,0,0.,12.0,0.,12.0,0.,12.0,0.,12.0
1979-07-23 09:45:38.660 ,3,1,0.,12.0,0.,12.0,0.,12.0,0.,12.0
1979-07-23 09:45:50.660 ,3,1,0.,12.0,0.,12.0,0.,12.0,0.,12.0
1979-07-23 09:46:02.660 ,3,0,0.,12.0,0.,12.0,0.,12.0,0.,12.0
1979-07-23 09:46:14.660 ,3,0,0.,12.0,0.,12.0,0.,12.0,0.,12.0
1979-07-23 09:46:26.660 ,2,1,0.,12.0,0.,12.0,0.,12.0,0.,12.0
1979-07-23 09:46:38.660 ,2,1,0.,12.0,0.,12.0,0.,12.0,0.,12.0
1979-07-23 09:46:50.660 ,2,0,0.,12.0,0.,12.0,0.,12.0,0.,12.0
1979-07-23 09:47:02.660 ,2,0,0.,12.0,0.,12.0,0.,12.0,0.,12.0
1979-07-23 09:47:14.660 ,1,1,0.,12.0,0.,12.0,0.,12.0,0.,12.0
1979-07-23 09:47:26.660 ,1,1,0.,12.0,0.,12.0,0.,12.0,0.,12.0
1979-07-23 09:47:38.660 ,1,0,0.,12.0,0.,12.0,0.,12.0,0.,12.0
1979-07-23 09:47:50.660 ,1,0,0.,12.0,0.,12.0,0.,12.0,0.,12.0
1979-07-23 09:48:02.660 ,0,1,0.,12.0,0.,12.0,0.,12.0,0.,12.0
1979-07-23 09:48:14.660 ,0,1,0.,12.0,0.,12.0,0.,12.0,0.,12.0
1979-07-23 09:48:26.660 ,0,0,0.,12.0,0.,12.0,0.,12.0,0.,12.0
1979-07-23 09:48:38.660 ,0,0,0.,12.0,0.,12.0,0.,12.0,0.,12.0
1979-07-23 09:48:50.660 ,0,1,0.,12.0,0.,12.0,0.,12.0,0.,12.0
1979-07-23 09:49:02.660 ,0,1,0.,12.0,0.,12.0,0.,12.0,0.,12.0
1979-07-23 09:49:14.660 ,0,0,0.,12.0,0.,12.0,0.,12.0,0.,12.0
1979-07-23 09:49:26.660 ,0,0,0.,12.0,0.,12.0,0.,12.0,0.,12.0
1979-07-23 09:49:38.660 ,1,1,0.,12.0,0.,12.0,0.,12.0,0.,12.0
1979-07-23 09:49:50.660 ,1,1,0.,12.0,0.,12.0,0.,12.0,0.,12.0
1979-07-23 09:50:02.660 ,1,0,0.,12.0,0.,12.0,0.,12.0,0.,12.0
1979-07-23 09:50:14.660 ,1,0,0.,12.0,0.,12.0,0.,12.0,0.,12.0
1979-07-23 09:50:26.660 ,2,1,0.,12.0,0.,12.0,0.,12.0,0.,12.0
1979-07-23 09:50:38.660 ,2,1,0.,12.0,0.,12.0,0.,12.0,0.,12.0
1979-07-23 09:50:50.660 ,2,0,0.,12.0,0.,12.0,0.,12.0,0.,12.0
1979-07-23 09:51:02.660 ,2,0,0.,12.0,0.,12.0,0.,12.0,0.,12.0
1979-07-23 09:51:14.660 ,3,1,1.,12.0,0.,12.0,0.,12.0,0.,12.0
1979-07-23 09:51:26.660 ,3,1,0.,12.0,0.,12.0,0.,12.0,0.,12.0
1979-07-23 09:51:38.660 ,3,0,0.,12.0,0.,12.0,0.,12.0,0.,12.0
1979-07-23 09:51:50.660 ,3,0,0.,12.0,0.,12.0,0.,12.0,0.,12.0
1979-07-23 09:52:02.660 ,4,1,0.,12.0,0.,12.0,0.,12.0,0.,12.0
1979-07-23 09:52:14.660 ,4,1,0.,12.0,0.,12.0,0.,12.0,0.,12.0
1979-07-23 09:52:26.660 ,4,0,0.,12.0,0.,12.0,0.,12.0,0.,12.0
1979-07-23 09:52:38.660 ,4,0,0.,12.0,0.,12.0,0.,12.0,0.,12.0
1979-07-23 09:52:50.660 ,5,1,0.,12.0,0.,12.0,0.,12.0,0.,12.0
1979-07-23 09:53:02.660 ,5,1,0.,12.0,0.,12.0,0.,12.0,0.,12.0
1979-07-23 09:53:14.660 ,5,0,0.,12.0,0.,12.0,0.,12.0,0.,12.0
1979-07-23 09:53:26.660 ,5,0,0.,12.0,0.,12.0,0.,12.0,0.,12.0
1979-07-23 09:53:38.660 ,6,1,0.,12.0,0.,12.0,0.,12.0,0.,12.0
1979-07-23 09:53:50.660 ,6,1,0.,12.0,0.,12.0,0.,12.0,0.,12.0
1979-07-23 09:54:02.660 ,6,0,0.,12.0,0.,12.0,0.,12.0,0.,12.0
1979-07-23 09:54:14.660 ,6,0,0.,12.0,0.,12.0,0.,12.0,0.,12.0
1979-07-23 09:54:26.660 ,7,0,0.,12.0,0.,12.0,0.,12.0,0.,12.0
1979-07-23 09:54:38.660 ,7,0,0.,12.0,0.,12.0,0.,12.0,0.,12.0
1979-07-23 09:54:50.660 ,7,0,0.,12.0,0.,12.0,0.,12.0,0.,12.0
1979-07-23 09:55:02.660 ,7,0,0.,12.0,0.,12.0,0.,12.0,0.,12.0
1979-07-23 09:55:14.660 ,4,1,0.,12.0,0.,12.0,0.,12.0,0.,12.0
1979-07-23 09:55:26.660 ,4,1,0.,12.0,0.,12.0,0.,12.0,0.,12.0
1979-07-23 09:55:38.660 ,0,1,0.,12.0,0.,12.0,0.,12.0,0.,12.0
1979-07-23 09:55:50.660 ,0,1,0.,12.0,0.,12.0,0.,12.0,0.,12.0
1979-07-23 09:56:02.660 ,3,1,0.,12.0,0.,12.0,0.,12.0,0.,12.0
1979-07-23 09:56:14.660 ,3,1,0.,12.0,0.,12.0,0.,12.0,0.,12.0
1979-07-23 09:56:26.660 ,7,1,0.,12.0,0.,12.0,0.,12.0,0.,12.0
1979-07-23 09:56:38.660 ,7,1,0.,12.0,0.,12.0,0.,12.0,0.,12.0
1979-07-23 09:56:50.660 ,4,1,0.,12.0,0.,12.0,0.,12.0,0.,12.0
1979-07-23 09:57:02.660 ,4,1,0.,12.0,0.,12.0,0.,12.0,0.,12.0
1979-07-23 09:57:14.660 ,0,1,0.,12.0,0.,12.0,0.,12.0,0.,12.0
1979-07-23 09:57:26.660 ,0,1,0.,12.0,0.,12.0,0.,12.0,0.,12.0
1979-07-23 09:57:38.660 ,3,1,0.,12.0,0.,12.0,0.,12.0,0.,12.0
1979-07-23 09:57:50.660 ,3,1,0.,12.0,0.,12.0,0.,12.0,0.,12.0
1979-07-23 09:58:02.660 ,7,1,0.,12.0,0.,12.0,0.,12.0,0.,12.0
1979-07-23 09:58:14.660 ,7,1,0.,12.0,0.,12.0,0.,12.0,0.,12.0
1979-07-23 09:58:26.660 ,4,1,0.,12.0,0.,12.0,0.,12.0,0.,12.0
1979-07-23 09:58:38.660 ,4,1,0.,12.0,0.,12.0,0.,12.0,0.,12.0
1979-07-23 09:58:50.660 ,0,1,0.,12.0,0.,12.0,0.,12.0,0.,12.0
1979-07-23 09:59:02.660 ,0,1,0.,12.0,0.,12.0,0.,12.0,0.,12.0
1979-07-23 09:59:14.660 ,3,1,0.,12.0,0.,12.0,0.,12.0,0.,12.0
1979-07-23 09:59:26.660 ,3,1,0.,12.0,0.,12.0,0.,12.0,0.,12.0
1979-07-23 09:59:38.660 ,7,1,0.,12.0,0.,12.0,0.,12.0,0.,12.0
1979-07-23 09:59:50.660 ,7,1,0.,12.0,0.,12.0,0.,12.0,0.,12.0
1979-07-23 10:00:02.660 ,4,1,0.,12.0,0.,12.0,0.,12.0,0.,12.0
1979-07-23 10:00:14.660 ,4,1,0.,12.0,0.,12.0,0.,12.0,0.,12.0
1979-07-23 10:00:26.660 ,0,1,0.,12.0,0.,12.0,0.,12.0,0.,12.0
1979-07-23 10:00:38.660 ,0,1,0.,12.0,0.,12.0,0.,12.0,0.,12.0
1979-07-23 10:00:50.660 ,3,1,0.,12.0,0.,12.0,0.,12.0,0.,12.0
1979-07-23 10:01:02.660 ,3,1,0.,12.0,0.,12.0,0.,12.0,0.,12.0
1979-07-23 10:01:14.660 ,7,1,0.,12.0,0.,12.0,0.,12.0,0.,12.0
1979-07-23 10:01:26.660 ,7,1,0.,12.0,0.,12.0,0.,12.0,0.,12.0
1979-07-23 10:01:38.660 ,4,1,0.,12.0,0.,12.0,0.,12.0,0.,12.0
1979-07-23 10:01:50.660 ,4,1,0.,12.0,0.,12.0,0.,12.0,0.,12.0
1979-07-23 10:02:02.660 ,0,1,0.,12.0,0.,12.0,0.,12.0,0.,12.0
1979-07-23 10:02:14.660 ,0,1,0.,12.0,0.,12.0,0.,12.0,0.,12.0
1979-07-23 10:02:26.660 ,3,1,0.,12.0,0.,12.0,0.,12.0,0.,12.0
1979-07-23 10:02:38.660 ,3,1,0.,12.0,0.,12.0,0.,12.0,0.,12.0
1979-07-23 10:02:50.660 ,7,1,0.,12.0,0.,12.0,0.,12.0,0.,12.0
1979-07-23 10:03:02.660 ,7,1,0.,12.0,0.,12.0,0.,12.0,0.,12.0
1979-07-23 10:03:14.660 ,4,1,0.,12.0,0.,12.0,0.,12.0,0.,12.0
1979-07-23 10:03:26.660 ,4,1,0.,12.0,0.,12.0,0.,12.0,0.,12.0
1979-07-23 10:03:38.660 ,0,1,0.,12.0,0.,12.0,0.,12.0,0.,12.0
1979-07-23 10:03:50.660 ,0,1,0.,12.0,0.,12.0,0.,12.0,0.,12.0
1979-07-23 10:04:02.660 ,3,1,0.,12.0,0.,12.0,0.,12.0,0.,12.0
1979-07-23 10:04:14.660 ,3,1,0.,12.0,0.,12.0,0.,12.0,0.,12.0
1979-07-23 10:04:26.660 ,7,1,0.,12.0,0.,12.0,0.,12.0,0.,12.0
1979-07-23 10:04:38.660 ,7,1,0.,12.0,0.,12.0,0.,12.0,0.,12.0
1979-07-23 10:04:50.660 ,4,1,0.,12.0,0.,12.0,0.,12.0,0.,12.0
1979-07-23 10:05:02.660 ,4,1,0.,12.0,0.,12.0,0.,12.0,0.,12.0
1979-07-23 10:05:14.660 ,0,1,0.,12.0,0.,12.0,0.,12.0,0.,12.0
1979-07-23 10:05:26.660 ,0,1,0.,12.0,0.,12.0,0.,12.0,0.,12.0
1979-07-23 10:05:38.660 ,0,0,0.,12.0,0.,12.0,0.,12.0,0.,12.0
1979-07-23 10:05:50.660 ,0,0,0.,12.0,0.,12.0,0.,12.0,0.,12.0
1979-07-23 10:06:02.660 ,0,0,0.,12.0,0.,12.0,0.,12.0,0.,12.0
1979-07-23 10:06:14.660 ,0,0,0.,12.0,0.,12.0,0.,12.0,0.,12.0
1979-07-23 10:06:26.660 ,5,1,0.,12.0,0.,12.0,0.,12.0,0.,12.0
1979-07-23 10:06:38.660 ,5,1,0.,12.0,0.,12.0,0.,12.0,0.,12.0
1979-07-23 10:06:50.660 ,5,0,0.,12.0,0.,12.0,0.,12.0,0.,12.0
1979-07-23 10:07:02.660 ,5,0,0.,12.0,0.,12.0,0.,12.0,0.,12.0
1979-07-23 10:07:14.660 ,4,1,0.,12.0,0.,12.0,0.,12.0,0.,12.0
1979-07-23 10:07:26.660 ,4,1,0.,12.0,0.,12.0,0.,12.0,0.,12.0
1979-07-23 10:07:38.660 ,4,0,0.,12.0,0.,12.0,0.,12.0,0.,12.0
1979-07-23 10:07:50.660 ,4,0,0.,12.0,0.,12.0,0.,12.0,0.,12.0
1979-07-23 10:08:02.660 ,3,1,0.,12.0,0.,12.0,0.,12.0,0.,12.0
1979-07-23 10:08:14.660 ,3,1,0.,12.0,0.,12.0,0.,12.0,0.,12.0
1979-07-23 10:08:26.660 ,3,0,0.,12.0,0.,12.0,0.,12.0,0.,12.0
1979-07-23 10:08:38.660 ,3,0,0.,12.0,0.,12.0,0.,12.0,0.,12.0
1979-07-23 10:08:50.660 ,2,1,0.,12.0,0.,12.0,0.,12.0,0.,12.0
1979-07-23 10:09:02.660 ,2,1,0.,12.0,0.,12.0,0.,12.0,0.,12.0
1979-07-23 10:09:14.660 ,2,0,0.,12.0,0.,12.0,0.,12.0,0.,12.0
1979-07-23 10:09:26.660 ,2,0,0.,12.0,0.,12.0,0.,12.0,0.,12.0
1979-07-23 10:09:38.660 ,1,1,0.,12.0,0.,12.0,0.,12.0,0.,12.0
1979-07-23 10:09:50.660 ,1,1,0.,12.0,0.,12.0,0.,12.0,0.,12.0
1979-07-23 10:10:02.660 ,1,0,0.,12.0,0.,12.0,0.,12.0,0.,12.0
1979-07-23 10:10:14.660 ,1,0,0.,12.0,0.,12.0,0.,12.0,0.,12.0
1979-07-23 10:10:26.660 ,0,1,0.,12.0,0.,12.0,0.,12.0,0.,12.0
1979-07-23 10:10:38.660 ,0,1,0.,12.0,0.,12.0,0.,12.0,0.,12.0
1979-07-23 10:10:50.660 ,0,0,0.,12.0,0.,12.0,0.,12.0,0.,12.0
1979-07-23 10:11:02.660 ,0,0,0.,12.0,0.,12.0,0.,12.0,0.,12.0
1979-07-23 10:11:14.660 ,0,1,0.,12.0,0.,12.0,0.,12.0,0.,12.0
1979-07-23 10:11:26.660 ,0,1,0.,12.0,0.,12.0,0.,12.0,0.,12.0
1979-07-23 10:11:38.660 ,0,0,0.,12.0,0.,12.0,0.,12.0,0.,12.0
1979-07-23 10:11:50.660 ,0,0,0.,12.0,0.,12.0,0.,12.0,0.,12.0
1979-07-23 10:12:02.660 ,1,1,0.,12.0,0.,12.0,0.,12.0,0.,12.0
1979-07-23 10:12:14.660 ,1,1,0.,12.0,0.,12.0,0.,12.0,0.,12.0
1979-07-23 10:12:26.660 ,1,0,0.,12.0,0.,12.0,0.,12.0,0.,12.0
1979-07-23 10:12:38.660 ,1,0,0.,12.0,0.,12.0,0.,12.0,0.,12.0
1979-07-23 10:12:50.660 ,2,1,0.,12.0,0.,12.0,0.,12.0,0.,12.0
1979-07-23 10:13:02.660 ,2,1,0.,12.0,0.,12.0,0.,12.0,0.,12.0
1979-07-23 10:13:14.660 ,2,0,0.,12.0,0.,12.0,0.,12.0,0.,12.0
1979-07-23 10:13:26.660 ,2,0,0.,12.0,0.,12.0,0.,12.0,0.,12.0
1979-07-23 10:13:38.660 ,3,1,0.,12.0,0.,12.0,0.,12.0,0.,12.0
1979-07-23 10:13:50.660 ,3,1,0.,12.0,0.,12.0,0.,12.0,0.,12.0
1979-07-23 10:14:02.660 ,3,0,0.,12.0,0.,12.0,0.,12.0,0.,12.0
1979-07-23 10:14:14.660 ,3,0,0.,12.0,0.,12.0,0.,12.0,0.,12.0
1979-07-23 10:14:26.660 ,4,1,0.,12.0,0.,12.0,0.,12.0,0.,12.0
1979-07-23 10:14:38.660 ,4,1,0.,12.0,0.,12.0,0.,12.0,0.,12.0
1979-07-23 10:14:50.660 ,4,0,0.,12.0,0.,12.0,0.,12.0,0.,12.0
1979-07-23 10:15:02.660 ,4,0,0.,12.0,0.,12.0,0.,12.0,0.,12.0
1979-07-23 10:15:14.660 ,5,1,0.,12.0,0.,12.0,0.,12.0,0.,12.0
1979-07-23 10:15:26.660 ,5,1,0.,12.0,0.,12.0,0.,12.0,0.,12.0
1979-07-23 10:15:38.660 ,5,0,0.,12.0,0.,12.0,0.,12.0,0.,12.0
1979-07-23 10:15:50.660 ,5,0,0.,12.0,0.,12.0,0.,12.0,0.,12.0
1979-07-23 10:16:02.660 ,6,1,0.,12.0,0.,12.0,0.,12.0,0.,12.0
1979-07-23 10:16:14.660 ,6,1,0.,12.0,0.,12.0,0.,12.0,0.,12.0
1979-07-23 10:16:26.660 ,6,0,0.,12.0,0.,12.0,0.,12.0,0.,12.0
1979-07-23 10:16:38.660 ,6,0,0.,12.0,0.,12.0,0.,12.0,0.,12.0
1979-07-23 10:16:50.660 ,7,1,0.,12.0,0.,12.0,0.,12.0,0.,12.0
1979-07-23 10:17:02.660 ,7,1,0.,12.0,0.,12.0,0.,12.0,0.,12.0
1979-07-23 10:17:14.660 ,7,0,0.,12.0,0.,12.0,0.,12.0,0.,12.0
1979-07-23 10:17:26.660 ,7,0,0.,12.0,0.,12.0,0.,12.0,0.,12.0
1979-07-23 10:17:38.660 ,7,1,0.,12.0,0.,12.0,0.,12.0,0.,12.0
1979-07-23 10:17:50.660 ,7,1,0.,12.0,0.,12.0,0.,12.0,0.,12.0
1979-07-23 10:18:02.660 ,7,0,0.,12.0,0.,12.0,0.,12.0,0.,12.0
1979-07-23 10:18:14.660 ,7,0,0.,12.0,0.,12.0,0.,12.0,0.,12.0